Location: Newark
(35.6833°N, 139.7500°E)
Time: 16:36:10
(UTC+00:00)

Envisat - Visible Passes

Search period start: 30 September 2020 00:00
Search period end: 10 October 2020 00:00
Orbit: 764 x 766 km, 98.1° (Epoch: 29 September)

Date Brightness Start Highest point End Pass type
(mag) Time Alt. Az. Time Alt. Az. Time Alt. Az.
01 Oct 6.4 09:22:14 10° WSW 09:24:32 13° W 09:26:52 10° WNW visible
01 Oct 5.5 19:52:37 10° NE 19:56:50 26° E 20:01:02 10° SSE visible
02 Oct 5.3 08:43:00 10° SSW 08:47:28 31° W 08:51:58 10° NW visible
02 Oct 6.6 19:18:46 10° E 19:19:43 10° E 19:20:40 10° ESE visible
04 Oct 6.1 09:09:48 10° SW 09:13:04 17° W 09:16:22 10° NW visible
04 Oct 6.0 19:41:41 10° NE 19:45:24 20° E 19:49:06 10° SE visible
06 Oct 4.8 20:06:18 10° NNE 20:10:59 37° E 20:15:39 10° SSE visible
07 Oct 5.8 08:57:44 10° SW 09:01:37 22° W 09:05:32 10° NW visible
07 Oct 6.2 19:30:57 10° NE 19:33:56 16° E 19:36:56 10° SE visible
09 Oct 6.5 09:25:30 10° WSW 09:27:17 12° W 09:29:04 10° WNW visible
09 Oct 5.3 19:55:12 10° NE 19:59:34 28° E 20:03:55 10° SSE visible
